Weather History for KFNB - October, 2013

Change the Weather History Date:

Friday, October 4, 2013

  Actual Average Record
Temperature  
Mean Temperature 74 °F -  
Max Temperature 87 °F 73 °F 89 °F (2011)
Min Temperature 59 °F 46 °F 28 °F (1999)
Cooling Degree Days 8    
Growing Degree Days 24 (Base 50)    
Moisture  
Dew Point 67 °F    
Average Humidity 81    
Maximum Humidity 100    
Minimum Humidity 48    
Precipitation  
Precipitation 0.23 in - - ()
Sea Level Pressure  
Sea Level Pressure 29.74 in    
Wind  
Wind Speed 9 mph (SSE)    
Max Wind Speed 18 mph    
Max Gust Speed 30 mph    
Visibility 10 miles    
Events Rain , Thunderstorm    
Averages and records for this station are not official NWS values.
T = Trace of Precipitation, MM = Missing Value Source: NWS Daily Summary

Daily Weather History Graph

Daily Weather History Graph

Search for Another Location

Airport or City:

Trip Planner

Search our weather history database for the weather conditions in past years. The results will help you decide how hot, cold, wet, or windy it might be!

Date:

Astronomy

Oct. 04, 2013 Rise Set
Actual Time 7:21 AM CDT 6:59 PM CDT
Civil Twilight 6:54 AM CDT 7:26 PM CDT
Nautical Twilight 6:23 AM CDT 7:57 PM CDT
Astronomical Twilight 5:51 AM CDT 8:29 PM CDT
Moon 6:58 AM CDT (10/4) 6:42 PM CDT (10/4)
Length of Visible Light 12h 31m
Length of Day
11h 37m
Waning Crescent, 0% of the Moon is Illuminated
Oct 4
Waning Crescent
Oct 4
New
Oct 11
First Quarter
Oct 18
Full
Oct 26
Last Quarter

Hourly Weather History & Observations

Time (CDT) Temp. Heat Index Dew Point Humidity Pressure Visibility Wind Dir Wind Speed Gust Speed Precip Events Conditions
12:53 AM 72.0 °F - 68.0 °F 87% 29.73 in 10.0 mi SE 9.2 mph - N/A   Clear
1:53 AM 71.1 °F - 68.0 °F 90% 29.73 in 10.0 mi SE 6.9 mph - N/A   Clear
2:53 AM 70.0 °F - 66.9 °F 90% 29.73 in 10.0 mi ESE 5.8 mph - N/A   Clear
3:53 AM 68.0 °F - 66.0 °F 93% 29.73 in 10.0 mi East 3.5 mph - N/A   Clear
4:53 AM 68.0 °F - 66.9 °F 96% 29.71 in 10.0 mi East 5.8 mph - N/A   Partly Cloudy
5:40 AM 69.8 °F - 68.0 °F 94% 29.74 in 10.0 mi SE 5.8 mph - N/A   Mostly Cloudy
5:53 AM 71.1 °F - 68.0 °F 90% 29.70 in 10.0 mi SSE 8.1 mph - 0.00 in Rain Light Rain
6:07 AM 71.6 °F - 68.0 °F 88% 29.74 in 10.0 mi South 13.8 mph 23.0 mph 0.00 in Thunderstorm Overcast
6:28 AM 71.6 °F - 69.8 °F 94% 29.76 in 10.0 mi SSW 8.1 mph 16.1 mph 0.01 in Rain Light Rain
6:53 AM 72.0 °F - 69.1 °F 91% 29.74 in 7.0 mi South 8.1 mph - 0.02 in Rain Rain
7:04 AM 71.6 °F - 69.8 °F 94% 29.76 in 7.0 mi South 8.1 mph - 0.02 in Rain , Thunderstorm Rain
7:19 AM 71.6 °F - 69.8 °F 94% 29.77 in 9.0 mi SSE 5.8 mph - 0.04 in Rain Light Rain
7:30 AM 71.6 °F - 69.8 °F 94% 29.76 in 10.0 mi East 4.6 mph - 0.04 in Thunderstorm Overcast
7:53 AM 71.1 °F - 69.1 °F 93% 29.75 in 10.0 mi Variable 6.9 mph - 0.04 in Rain , Thunderstorm Light Rain
8:53 AM 70.0 °F - 70.0 °F 100% 29.74 in 9.0 mi SE 6.9 mph - 0.17 in Thunderstorm Thunderstorm
9:53 AM 72.0 °F - 70.0 °F 93% 29.74 in 8.0 mi SE 12.7 mph 18.4 mph 0.00 in Rain , Thunderstorm Light Rain
10:00 AM 71.6 °F - 69.8 °F 94% 29.76 in 8.0 mi SE 6.9 mph - N/A   Mostly Cloudy
10:36 AM 73.4 °F - 71.6 °F 94% 29.75 in 9.0 mi ESE 9.2 mph - N/A   Mostly Cloudy
10:46 AM 73.4 °F - 71.6 °F 94% 29.75 in 9.0 mi ESE 11.5 mph - N/A   Mostly Cloudy
10:53 AM 75.0 °F - 72.0 °F 90% 29.73 in 10.0 mi SE 10.4 mph 18.4 mph N/A   Mostly Cloudy
11:53 AM 75.9 °F - 71.1 °F 85% 29.73 in 10.0 mi SSE 8.1 mph - N/A   Overcast
12:31 PM 78.8 °F - 71.6 °F 78% 29.74 in 10.0 mi SSE 10.4 mph - 0.00 in   Overcast
12:53 PM 79.0 °F - 71.1 °F 77% 29.71 in 10.0 mi SSE 12.7 mph 17.3 mph 0.00 in Rain Light Rain
1:53 PM 80.1 °F 83.2 °F 70.0 °F 71% 29.68 in 10.0 mi South 13.8 mph 24.2 mph 0.00 in   Overcast
2:53 PM 82.9 °F 87.0 °F 70.0 °F 65% 29.66 in 10.0 mi South 12.7 mph 23.0 mph N/A   Mostly Cloudy
3:53 PM 84.9 °F 88.8 °F 69.1 °F 59% 29.66 in 10.0 mi South 15.0 mph 29.9 mph N/A   Scattered Clouds
4:53 PM 84.9 °F 87.6 °F 66.9 °F 55% 29.65 in 10.0 mi SSW 18.4 mph 27.6 mph N/A   Clear
5:53 PM 82.9 °F 85.0 °F 66.0 °F 56% 29.66 in 10.0 mi South 10.4 mph 18.4 mph N/A   Clear
6:53 PM 79.0 °F - 64.0 °F 60% 29.71 in 10.0 mi SW 17.3 mph 29.9 mph 0.00 in   Scattered Clouds
7:53 PM 73.0 °F - 63.0 °F 71% 29.74 in 10.0 mi SSW 9.2 mph - N/A   Mostly Cloudy
8:53 PM 72.0 °F - 60.1 °F 66% 29.78 in 10.0 mi West 12.7 mph - N/A   Partly Cloudy
9:53 PM 68.0 °F - 52.0 °F 56% 29.82 in 10.0 mi WNW 13.8 mph - N/A   Mostly Cloudy
10:53 PM 63.0 °F - 43.0 °F 48% 29.86 in 10.0 mi WNW 12.7 mph 21.9 mph N/A   Mostly Cloudy
11:53 PM 59.0 °F - 42.1 °F 53% 29.91 in 10.0 mi WNW 13.8 mph - 0.00 in   Overcast